Flag for U.S.A. Weather past 2 weeks in Santa Clarita, California, U.S.A.

Now
79 °F

Sunny.


Feels Like: 77 °F
Forecast: 46 / 78 °F
Wind: 21 mph from Northeast

Location: Van Nuys Airport

Current Time: Mar 6, 2015 at 12:49:17 PM

Latest Report: Mar 6, 2015 at 11:51 AM


Visibility: 10 mi

Pressure: 30.07 "Hg

Humidity: 11%

Dew point: 21 °F

Location of Santa ClaritaLocation

Historic Weather in Santa Clarita — Graph

°F

Santa Clarita temperature yesterday

Maximum temperature yesterday: 76 °F (at 2:51 PM)
Minimum temperature yesterday: 44 °F (at 5:51 AM)
Average temperature yesterday: 61 °F

Past Weeks' High & Low Weather Summary

 TemperatureHumidityPressure
High79 °F (Mar 6, 10:51 AM)97% (Mar 3, 6:51 AM)30.27 "Hg (Mar 3, 6:51 AM)
Low43 °F (Mar 3, 6:51 AM)11% (Mar 6, 11:51 AM)29.72 "Hg (Feb 27, 6:51 PM)
Average57 °F62%29.96 "Hg
* Reported Feb 19 11:51 AM — Mar 6 11:51 AM, Santa Clarita, Weather by CustomWeather, © 2015

Note: Actual official high and low records may vary slightly from our data, if they occured in-between our weather recording intervals... More about our weather records

Advertising

Santa Clarita weather history for previous 24 hours

 ConditionsComfort  
Time TempWeatherWind HumidityBarometerVisibility
11:51 AM
Fri, Mar 6
79 °FSunny.21 mph11%30.07 "Hg10 mi
10:51 AM79 °FSunny.23 mph12%30.10 "Hg10 mi
9:51 AM73 °FSunny.21 mph17%30.12 "Hg10 mi
8:51 AM68 °FSunny.20 mph19%30.14 "Hg10 mi
7:51 AM64 °FSunny.17 mph19%30.13 "Hg10 mi
6:51 AM62 °FSunny.18 mph19%30.12 "Hg10 mi
5:51 AM61 °FClear.21 mph19%30.12 "Hg10 mi
4:51 AM61 °FClear.20 mph18%30.11 "Hg10 mi
3:51 AM62 °FClear.21 mph17%30.10 "Hg10 mi
2:51 AM62 °FClear.18 mph17%30.11 "Hg10 mi
1:51 AM63 °FClear.21 mph17%30.12 "Hg10 mi
12:51 AM63 °FClear.21 mph17%30.13 "Hg10 mi
11:51 PM
Thu, Mar 5
63 °FClear.18 mph19%30.14 "Hg10 mi
10:51 PM63 °FClear.17 mph20%30.15 "Hg10 mi
9:51 PM63 °FClear.12 mph20%30.16 "Hg10 mi
8:51 PM58 °FClear.No wind36%30.16 "Hg10 mi
7:51 PM62 °FClear.No wind22%30.17 "Hg10 mi
6:51 PM65 °FClear.No wind19%30.16 "Hg10 mi
5:51 PM67 °FSunny.5 mph18%30.16 "Hg10 mi
4:51 PM71 °FSunny.8 mph16%30.15 "Hg10 mi
3:51 PM74 °FSunny.10 mph17%30.14 "Hg10 mi
2:51 PM76 °FSunny.6 mph16%30.15 "Hg10 mi
1:51 PM75 °FSunny.7 mph15%30.16 "Hg10 mi
12:51 PM74 °FSunny.6 mph18%30.19 "Hg10 mi
Weather by CustomWeather, © 2015

See weather overviewHow to use our weather pages